Location: Cella
(44.7333°N, 10.5667°E)
Time: 18:29:29
(UTC+00:00)

USA 234 - Visible Passes

Search period start: 16 June 2021 00:00
Search period end: 26 June 2021 00:00
Orbit: 1102 x 1105 km, 123.0° (Epoch: 18 April)

Date Brightness Start Highest point End Pass type
(mag) Time Alt. Az. Time Alt. Az. Time Alt. Az.
18 Jun 5.7 19:46:41 10° SW 19:47:32 10° WSW 19:48:22 10° WSW visible
20 Jun 5.7 20:04:29 10° WSW 20:05:06 10° WSW 20:05:42 10° WSW visible
22 Jun 5.7 20:22:32 10° WSW 20:22:40 10° WSW 20:22:47 10° WSW visible
23 Jun 5.0 19:34:11 10° S 19:39:18 24° SW 19:44:26 10° WNW visible
25 Jun 4.9 19:51:46 10° S 19:56:51 24° SW 20:01:59 10° WNW visible
